[[{"header":{"parameterUnit":"m.s-1","parameterCategory":2,"la1":30.2991,"la2":30.254,"lo1":-89.0895,"lo2":-89.0444,"dy":0.0017,"dx":0.0017,"nx":28,"ny":28,"refTime":"2025-02-05T03:00:00:Z","depth":"0","parameterNumber":2,"parameterNumberName":"U-component_of_CURRENTS"},"data":[0,0,0,0,0,0,0,0,0,0,0,0,0,0,0,0,0,0,0,0,0,0,0,0,0,0,0,0,0,0,0,0,0,0,0,0,0,0,0,0,0,0,0,0,0,0,0,0,0,0,0,0,0,0,0,0,0,0,-0.3006,-0.3004,0,-0.2858,-0.2857,-0.2855,-0.2775,-0.2775,-0.2775,-0.2775,-0.2566,-0.2561,-0.2555,0,0,0,0,0,0,0,0,0,0,0,0,0,-0.3049,-0.3049,-0.3006,-0.3004,-0.3003,-0.2859,-0.2857,-0.2854,-0.2775,-0.2775,-0.2775,-0.2775,-0.2568,-0.2561,-0.2555,0,0,0,0,0,0,0,0,0,0,0,0,0,-0.2977,-0.305,-0.3006,-0.2947,-0.294,-0.2859,-0.2856,-0.2854,-0.2775,-0.2775,-0.2775,-0.2775,-0.257,-0.2562,-0.2554,-0.2502,0,0,-0.2528,-0.2525,0,0,0,0,0,0,0,0,-0.2982,-0.2976,-0.2957,-0.2951,-0.2943,-0.2837,-0.2795,-0.2734,-0.2775,-0.2835,-0.2775,-0.2775,-0.2652,-0.2637,-0.2607,-0.2492,-0.2484,-0.2528,-0.2523,-0.2519,-0.2517,0,0,0,0,0,0,0,-0.2987,-0.298,-0.2945,-0.2956,-0.2947,-0.287,-0.2861,-0.2782,-0.2743,-0.283,-0.2824,-0.2811,-0.2648,-0.2616,-0.2602,-0.248,-0.2528,-0.252,-0.2515,-0.2512,-0.2396,-0.2398,0,0,0,0,0,0,-0.3018,-0.2986,-0.295,-0.2941,-0.2965,-0.287,-0.286,-0.2869,-0.2745,-0.2727,-0.2812,-0.2808,-0.263,-0.2612,-0.2594,-0.2556,-0.2519,-0.2511,-0.2506,-0.2394,-0.2397,-0.2399,0,0,0,0,0,0,-0.302,-0.3018,-0.2956,-0.296,-0.2947,-0.2871,-0.2881,-0.2866,-0.2843,-0.2732,-0.2712,-0.2804,-0.2629,-0.2606,-0.2553,-0.2547,-0.2507,-0.25,-0.2392,-0.2395,-0.2398,-0.2461,0,0,0,0,0,0,-0.3023,-0.302,-0.3031,-0.2964,-0.2948,-0.2936,-0.2881,-0.2864,-0.2835,-0.2829,-0.2719,-0.2699,-0.2627,-0.2567,-0.2545,-0.2534,-0.2493,-0.239,-0.2393,-0.2397,-0.2456,-0.2465,-0.2473,0,0,0,0,0,-0.3025,-0.3051,-0.3033,-0.3027,-0.297,-0.2937,-0.2923,-0.2864,-0.2835,-0.284,-0.277,-0.2703,-0.2575,-0.2561,-0.2535,-0.2522,-0.2388,-0.2392,-0.2397,-0.2452,-0.2464,-0.2473,0,0,0,0,0,0,-0.3074,-0.3043,-0.3022,-0.3037,-0.3001,-0.2925,-0.2917,-0.2876,-0.2821,-0.2815,-0.2711,-0.2687,-0.2652,-0.2589,-0.2576,-0.251,-0.2476,-0.2475,-0.2528,-0.2537,-0.2545,-0.254,-0.2486,0,0,0,0,0,-0.3092,-0.3101,-0.3059,-0.3067,-0.3059,-0.2989,-0.2965,-0.2932,-0.2875,-0.2851,-0.2771,-0.2699,-0.2648,-0.2596,-0.2551,-0.2486,-0.2409,-0.2472,-0.2481,-0.2488,-0.2473,-0.2368,-0.2363,-0.2413,-0.2413,-0.2413,0,0,-0.3103,-0.3093,-0.3091,-0.3076,-0.3041,-0.302,-0.2976,-0.2959,-0.2921,-0.2835,-0.2768,-0.2734,-0.265,-0.2602,-0.2577,-0.2539,-0.2439,-0.2494,-0.25,-0.2479,-0.2371,-0.2365,-0.236,-0.2416,-0.2415,-0.2415,0,0,-0.3125,-0.3136,-0.3141,-0.3126,-0.3096,-0.3057,-0.3062,-0.3001,-0.2962,-0.2903,-0.2851,-0.2817,-0.2704,-0.2651,-0.2605,-0.2632,-0.2511,-0.2625,-0.2617,-0.2517,-0.251,-0.2503,-0.2408,-0.2392,-0.2598,-0.2598,-0.2598,0,-0.3138,-0.3136,-0.3136,-0.3137,-0.3101,-0.308,-0.3052,-0.3024,-0.2947,-0.2895,-0.2898,-0.2765,-0.2722,-0.2635,-0.2665,-0.2644,-0.2564,-0.2577,-0.2522,-0.2513,-0.2505,-0.2409,-0.2391,-0.2602,-0.2601,-0.2601,-0.26,0,-0.3148,-0.3145,-0.3154,-0.3138,-0.3113,-0.3099,-0.3057,-0.3027,-0.2979,-0.2925,-0.2855,-0.281,-0.2716,-0.2721,-0.2694,-0.2623,-0.2581,-0.2565,-0.2484,-0.2503,-0.2402,-0.2382,-0.2607,-0.2605,-0.2604,-0.2603,0,0,-0.3169,-0.3156,-0.3159,-0.3103,-0.3104,-0.3055,-0.3036,-0.2961,-0.2889,-0.287,-0.2757,-0.2748,-0.273,-0.2684,-0.2659,-0.2588,-0.2499,-0.2553,-0.2546,-0.2438,-0.2259,-0.2192,-0.2163,-0.2454,-0.2451,-0.2448,-0.2214,0,-0.3159,-0.3124,-0.3133,-0.306,-0.3011,-0.2991,-0.2942,-0.2884,-0.2835,-0.2743,-0.272,-0.2642,-0.2711,-0.2661,-0.2617,-0.2521,-0.2445,-0.2563,-0.2275,-0.2266,-0.2186,-0.2137,-0.2032,-0.181,-0.2193,-0.219,-0.2187,0,-0.3154,-0.3111,-0.3048,-0.2933,-0.2911,-0.288,-0.275,-0.2713,-0.2642,-0.26,-0.2566,-0.2542,-0.2483,-0.2529,-0.2378,-0.244,-0.2364,-0.2299,-0.2287,-0.2181,-0.216,-0.1853,-0.1757,-0.1759,-0.2155,-0.2157,-0.216,0,-0.3083,-0.3034,-0.2955,-0.2931,-0.2838,-0.278,-0.2732,-0.2662,-0.2585,-0.252,-0.2443,-0.2403,-0.2331,-0.2262,-0.2211,-0.2257,-0.2012,-0.2042,-0.1908,-0.1902,-0.1733,-0.1717,-0.158,-0.1909,-0.1909,-0.191,-0.191,0,-0.3041,-0.2967,-0.2911,-0.2854,-0.2716,-0.2696,-0.2563,-0.2521,-0.2448,-0.2335,-0.2372,-0.2263,-0.2257,-0.2145,-0.2121,-0.1946,-0.1936,-0.1878,-0.1822,-0.1758,-0.1748,-0.1679,-0.173,-0.1901,-0.1903,-0.1905,-0.1906,0,-0.2963,-0.2954,-0.2823,-0.2715,-0.2679,-0.2575,-0.2463,-0.2358,-0.2334,-0.2187,-0.216,-0.2104,-0.1964,-0.1941,-0.1789,-0.1783,-0.1606,-0.1596,-0.1537,-0.148,-0.1372,-0.1431,-0.122,-0.1189,-0.1377,-0.1374,-0.1371,0,-0.2906,-0.2844,-0.2708,-0.2608,-0.2558,-0.2432,-0.2335,-0.2302,-0.2205,-0.2073,-0.1971,-0.1841,-0.1711,-0.1499,-0.1446,-0.1328,-0.1415,-0.1195,-0.1283,-0.1317,-0.1341,-0.1413,-0.141,-0.1082,-0.1077,-0.1073,-0.107,0,-0.2737,-0.2713,-0.2594,-0.2415,-0.2295,-0.216,-0.204,-0.1959,-0.1901,-0.1776,-0.1587,-0.1486,-0.1338,-0.1174,-0.1092,-0.1042,-0.1169,-0.1107,-0.1127,-0.1078,-0.1153,-0.1112,-0.1312,-0.1034,-0.1037,-0.104,-0.1042,-0.1043,-0.2572,-0.2462,-0.2309,-0.2122,-0.2001,-0.1833,-0.169,-0.1576,-0.1392,-0.1152,-0.1199,-0.0957,-0.096,-0.0805,-0.0786,-0.0738,-0.085,-0.0744,-0.0802,-0.0864,-0.0868,-0.1006,-0.0693,-0.0694,-0.0695,-0.0697,-0.0698,0,-0.228,-0.2173,-0.1999,-0.1751,-0.1555,-0.1585,-0.1417,-0.1276,-0.1011,-0.0818,-0.062,-0.0436,-0.0374,-0.0443,-0.0469,-0.0463,-0.0501,-0.0491,-0.0571,-0.0576,-0.0639,-0.0665,-0.0348,-0.0348,-0.0348,-0.0348,-0.0348,-0.0348,-0.2093,-0.184,-0.1757,-0.1338,-0.1207,-0.0951,-0.0848,-0.0701,-0.0554,-0.0201,0.0006,0.0085,-0.0099,-0.0267,-0.036,-0.0364,-0.0425,-0.0385,-0.0471,-0.0546,-0.0576,-0.0605,-0.064,-0.0323,-0.0323,-0.0358,-0.0358,-0.0359]},{"header":{"parameterUnit":"m.s-1","parameterCategory":2,"la1":30.2991,"la2":30.254,"lo1":-89.0895,"lo2":-89.0444,"dy":0.0017,"dx":0.0017,"nx":28,"ny":28,"refTime":"2025-02-05T03:00:00:Z","depth":"0","parameterNumber":3,"parameterNumberName":"V-component_of_CURRENTS"},"data":[0,0,0,0,0,0,0,0,0,0,0,0,0,0,0,0,0,0,0,0,0,0,0,0,0,0,0,0,0,0,0,0,0,0,0,0,0,0,0,0,0,0,0,0,0,0,0,0,0,0,0,0,0,0,0,0,0,0,0.1231,0.1232,0,0.1331,0.1333,0.1334,0.1445,0.1446,0.1448,0.1449,0.1612,0.1615,0.1618,0,0,0,0,0,0,0,0,0,0,0,0,0,0.1123,0.1124,0.1231,0.1232,0.1233,0.1331,0.1333,0.1334,0.1445,0.1447,0.1448,0.145,0.1611,0.1614,0.1618,0,0,0,0,0,0,0,0,0,0,0,0,0,0.1193,0.1125,0.1231,0.1298,0.1305,0.1331,0.1333,0.1335,0.1444,0.1447,0.1449,0.1451,0.161,0.1614,0.1619,0.1606,0,0,0.1633,0.1634,0,0,0,0,0,0,0,0,0.1189,0.1198,0.1287,0.1293,0.1301,0.1376,0.1354,0.1428,0.1444,0.1394,0.1449,0.1452,0.1535,0.1546,0.1563,0.1613,0.162,0.1633,0.1636,0.1638,0.1639,0,0,0,0,0,0,0,0.1184,0.1194,0.1274,0.1288,0.1296,0.1319,0.1331,0.1369,0.1455,0.1399,0.1406,0.1413,0.154,0.1558,0.1568,0.1623,0.1633,0.1637,0.164,0.1641,0.1711,0.1711,0,0,0,0,0,0,0.1165,0.1189,0.127,0.1276,0.1246,0.1319,0.1333,0.1352,0.1454,0.147,0.1411,0.1417,0.155,0.1563,0.1574,0.1536,0.1638,0.1642,0.1645,0.1712,0.1711,0.171,0,0,0,0,0,0,0.1163,0.1172,0.1266,0.1232,0.1246,0.1318,0.1338,0.1353,0.1368,0.1462,0.148,0.1411,0.1552,0.1568,0.1602,0.1545,0.1644,0.1648,0.1713,0.1712,0.1711,0.1478,0,0,0,0,0,0,0.1159,0.1171,0.1163,0.1231,0.1247,0.1259,0.1336,0.1353,0.1368,0.1377,0.1467,0.1485,0.1555,0.1594,0.1606,0.1553,0.1652,0.1714,0.1713,0.1711,0.1487,0.1469,0.1454,0,0,0,0,0,0.1155,0.1127,0.1163,0.1172,0.124,0.1256,0.1265,0.1326,0.1365,0.1352,0.1424,0.1482,0.1593,0.1596,0.1611,0.1557,0.1715,0.1713,0.1711,0.1495,0.1473,0.1454,0,0,0,0,0,0,0.1064,0.1137,0.1178,0.1172,0.1205,0.1274,0.1257,0.1307,0.1352,0.1362,0.1463,0.1484,0.1509,0.1566,0.1567,0.158,0.1666,0.1667,0.1497,0.1477,0.1461,0.1436,0.1656,0,0,0,0,0,0.1043,0.1047,0.1117,0.1105,0.1116,0.1184,0.1195,0.1239,0.1292,0.1315,0.138,0.1453,0.151,0.1518,0.1592,0.1569,0.1634,0.1552,0.1535,0.152,0.1515,0.1575,0.1561,0.1704,0.1704,0.1704,0,0,0.1002,0.104,0.1043,0.1086,0.1116,0.1095,0.1196,0.1196,0.118,0.1322,0.1314,0.1408,0.1503,0.1504,0.1516,0.1535,0.1507,0.1518,0.1503,0.1507,0.1571,0.1557,0.1544,0.1702,0.1703,0.1703,0,0,0.0899,0.0957,0.0917,0.0937,0.097,0.1013,0.1005,0.1068,0.1096,0.1107,0.1216,0.1267,0.1337,0.1386,0.1422,0.1354,0.1442,0.1379,0.1234,0.1289,0.1277,0.1268,0.1286,0.128,0.1336,0.1336,0.1336,0,0.0838,0.0817,0.09,0.086,0.086,0.0963,0.0911,0.0941,0.1007,0.1032,0.1079,0.1214,0.1278,0.1291,0.1262,0.1309,0.1354,0.1288,0.1263,0.1255,0.125,0.1271,0.1268,0.1325,0.1326,0.1327,0.1328,0,0.0708,0.069,0.0659,0.0656,0.0665,0.0635,0.0698,0.0716,0.0775,0.0831,0.0888,0.099,0.1078,0.1086,0.1141,0.1126,0.1174,0.1254,0.1298,0.122,0.1249,0.1249,0.1308,0.1312,0.1316,0.1319,0,0,0.0565,0.0568,0.0555,0.0546,0.0561,0.057,0.0533,0.056,0.0593,0.0639,0.0679,0.073,0.0832,0.0881,0.0965,0.0973,0.0938,0.1062,0.107,0.1051,0.1031,0.098,0.0977,0.1012,0.1012,0.1012,0.1049,0,0.0429,0.0337,0.0371,0.0292,0.0256,0.0345,0.0331,0.0381,0.046,0.0532,0.0618,0.0709,0.0737,0.0807,0.0803,0.0967,0.0937,0.0919,0.1137,0.1142,0.1084,0.0975,0.0991,0.1019,0.105,0.105,0.105,0,0.027,0.0247,0.0143,0.0171,0.0168,0.0143,0.0209,0.0217,0.0328,0.0405,0.0476,0.0607,0.0644,0.0708,0.0811,0.0803,0.087,0.0954,0.096,0.0999,0.1093,0.1118,0.102,0.1109,0.1052,0.1052,0.1052,0,0.0143,0.009,0.002,0.0015,0.0048,0.0043,0.0075,0.0172,0.0245,0.0349,0.0448,0.0515,0.0618,0.0686,0.0813,0.0834,0.0939,0.1014,0.1005,0.1003,0.1104,0.111,0.11,0.1044,0.1044,0.1044,0.1044,0,-0.0015,-0.0065,-0.0032,-0.0067,-0.0078,-0.0033,0.0007,0.0064,0.0197,0.032,0.0389,0.05,0.0625,0.0718,0.0792,0.0874,0.0915,0.095,0.1001,0.1018,0.1016,0.1175,0.1214,0.1045,0.1045,0.1045,0.1045,0,-0.0146,-0.0148,-0.0196,-0.0167,-0.0144,-0.0143,-0.0009,0.0077,0.0163,0.033,0.0375,0.0512,0.0601,0.0683,0.0828,0.0872,0.0995,0.0965,0.0941,0.0984,0.105,0.1076,0.1102,0.1171,0.0971,0.097,0.0969,0,-0.022,-0.0268,-0.0245,-0.0214,-0.0199,-0.0154,-0.0065,0.0045,0.0172,0.0356,0.0459,0.0548,0.0657,0.076,0.0808,0.0866,0.0947,0.0933,0.0958,0.1008,0.1079,0.1089,0.1149,0.0999,0.0999,0.0998,0.0998,0,-0.0322,-0.0313,-0.0314,-0.0246,-0.0176,-0.0068,0.0054,0.0145,0.0328,0.047,0.0664,0.074,0.0761,0.0814,0.08,0.0848,0.0986,0.0921,0.1018,0.1099,0.1075,0.1183,0.0997,0.0993,0.0993,0.0994,0.0994,0.0994,-0.0349,-0.0353,-0.031,-0.0218,-0.0116,0.006,0.0161,0.0322,0.052,0.0787,0.0843,0.1022,0.0976,0.0936,0.0919,0.0935,0.0935,0.1022,0.1048,0.1053,0.1105,0.0851,0.0875,0.0875,0.0875,0.0875,0.0874,0,-0.0343,-0.0306,-0.0244,-0.0102,0.0084,0.0115,0.0315,0.0431,0.0668,0.0921,0.1125,0.1343,0.1251,0.116,0.1071,0.1109,0.1154,0.1147,0.1217,0.1277,0.1109,0.1097,0.1117,0.1117,0.1117,0.1117,0.1116,0.1116,-0.0328,-0.0269,-0.0205,0.0101,0.0233,0.0459,0.058,0.0702,0.0864,0.1214,0.1478,0.1649,0.1597,0.1373,0.1292,0.1295,0.1428,0.1344,0.1429,0.1362,0.1355,0.1348,0.1347,0.1419,0.142,0.1629,0.1631,0.1632]}],[{"header":{"parameterUnit":"m.s-1","parameterCategory":2,"la1":30.2991,"la2":30.254,"lo1":-89.0895,"lo2":-89.0444,"dy":0.0017,"dx":0.0017,"nx":28,"ny":28,"refTime":"2025-02-05T03:00:00:Z","depth":"2","parameterNumber":2,"parameterNumberName":"U-component_of_CURRENTS"},"data":[0,0,0,0,0,0,0,0,0,0,0,0,0,0,0,0,0,0,0,0,0,0,0,0,0,0,0,0,0,0,0,0,0,0,0,0,0,0,0,0,0,0,0,0,0,0,0,0,0,0,0,0,0,0,0,0,0,0,-0.2064,-0.2067,0,-0.2206,-0.2207,-0.2207,-0.2296,-0.2298,-0.2299,-0.2301,-0.2431,-0.2433,-0.2435,0,0,0,0,0,0,0,0,0,0,0,0,0,-0.1851,-0.1853,-0.2064,-0.2067,-0.207,-0.2206,-0.2207,-0.2208,-0.2296,-0.2298,-0.23,-0.2301,-0.243,-0.2433,-0.2435,0,0,0,0,0,0,0,0,0,0,0,0,0,-0.1952,-0.1854,-0.2063,-0.2139,-0.2148,-0.2206,-0.2207,-0.2208,-0.2295,-0.2298,-0.23,-0.2302,-0.243,-0.2433,-0.2436,-0.2407,0,0,-0.2445,-0.2446,0,0,0,0,0,0,0,0,-0.1946,-0.1958,-0.2125,-0.2134,-0.2144,-0.2246,-0.218,-0.2278,-0.2295,-0.2227,-0.2301,-0.2303,-0.2374,-0.2382,-0.2387,-0.2413,-0.2419,-0.2445,-0.2447,-0.2448,-0.2449,0,0,0,0,0,0,0,-0.1939,-0.1952,-0.2108,-0.2128,-0.214,-0.216,-0.2176,-0.2198,-0.2276,-0.2233,-0.2243,-0.2276,-0.2378,-0.2383,-0.2391,-0.2421,-0.2445,-0.2448,-0.245,-0.2451,-0.2572,-0.2573,0,0,0,0,0,0,-0.1944,-0.1946,-0.2104,-0.2114,-0.2062,-0.2163,-0.218,-0.2201,-0.2277,-0.2294,-0.2274,-0.228,-0.2377,-0.2387,-0.2396,-0.2479,-0.2448,-0.2451,-0.2453,-0.257,-0.2572,-0.2573,0,0,0,0,0,0,-0.1938,-0.1956,-0.2098,-0.2043,-0.2064,-0.2166,-0.2188,-0.2203,-0.2249,-0.231,-0.2325,-0.2311,-0.2379,-0.2391,-0.2456,-0.2481,-0.2452,-0.2455,-0.2569,-0.2571,-0.2573,-0.2574,0,0,0,0,0,0,-0.1931,-0.1952,-0.2004,-0.2043,-0.2068,-0.2172,-0.2187,-0.2205,-0.227,-0.228,-0.2346,-0.2359,-0.2382,-0.2451,-0.2459,-0.2485,-0.2458,-0.2567,-0.257,-0.2572,-0.2572,-0.2576,-0.2579,0,0,0,0,0,-0.1922,-0.1966,-0.2005,-0.2028,-0.2124,-0.2175,-0.2189,-0.2259,-0.227,-0.2303,-0.2344,-0.2358,-0.2474,-0.2455,-0.2463,-0.249,-0.2566,-0.2569,-0.2572,-0.2571,-0.2575,-0.2579,0,0,0,0,0,0,-0.1938,-0.1981,-0.2025,-0.2094,-0.2156,-0.2195,-0.2245,-0.227,-0.2323,-0.2345,-0.2371,-0.2387,-0.2451,-0.2471,-0.2449,-0.2535,-0.2523,-0.2528,-0.252,-0.2524,-0.2527,-0.2502,-0.246,0,0,0,0,0,-0.1958,-0.1965,-0.2048,-0.2099,-0.2139,-0.2191,-0.2232,-0.2276,-0.2318,-0.2346,-0.239,-0.2434,-0.246,-0.2495,-0.253,-0.2573,-0.2519,-0.26,-0.2603,-0.2606,-0.2593,-0.25,-0.2492,-0.2584,-0.2584,-0.2584,0,0,-0.1975,-0.2002,-0.2015,-0.2098,-0.2145,-0.2217,-0.2219,-0.2289,-0.2352,-0.2349,-0.2446,-0.2449,-0.2474,-0.2527,-0.2558,-0.2555,-0.2557,-0.261,-0.2611,-0.2597,-0.2502,-0.2492,-0.2483,-0.2586,-0.2585,-0.2585,0,0,-0.2013,-0.2043,-0.209,-0.2128,-0.2222,-0.2251,-0.2277,-0.2349,-0.2399,-0.2479,-0.2478,-0.2493,-0.2574,-0.2572,-0.2581,-0.2623,-0.2572,-0.2649,-0.2651,-0.2561,-0.2551,-0.2542,-0.2471,-0.2455,-0.2656,-0.2656,-0.2656,0,-0.2029,-0.2108,-0.2118,-0.2183,-0.2224,-0.2267,-0.2347,-0.2395,-0.2481,-0.249,-0.2533,-0.2553,-0.259,-0.2578,-0.2606,-0.2628,-0.2565,-0.2629,-0.2559,-0.2549,-0.2539,-0.2468,-0.245,-0.2657,-0.2656,-0.2656,-0.2656,0,-0.2097,-0.2188,-0.2208,-0.2286,-0.2341,-0.2387,-0.2469,-0.2515,-0.2564,-0.2588,-0.261,-0.2628,-0.2617,-0.2643,-0.2649,-0.2595,-0.257,-0.2562,-0.2535,-0.2528,-0.2456,-0.2438,-0.2657,-0.2657,-0.2657,-0.2657,0,0,-0.2001,-0.2214,-0.2209,-0.2291,-0.2385,-0.2413,-0.2511,-0.257,-0.2561,-0.2651,-0.2624,-0.268,-0.2629,-0.2634,-0.2615,-0.2563,-0.2463,-0.254,-0.2535,-0.2445,-0.2256,-0.2161,-0.2132,-0.2422,-0.2419,-0.2416,-0.2236,0,-0.204,-0.2185,-0.2273,-0.2393,-0.2484,-0.2525,-0.2578,-0.2626,-0.2648,-0.2628,-0.2626,-0.2605,-0.2645,-0.2604,-0.2559,-0.2484,-0.2412,-0.2512,-0.2297,-0.2292,-0.2186,-0.2106,-0.199,-0.1811,-0.2217,-0.2214,-0.2212,0,-0.2064,-0.2154,-0.2298,-0.2447,-0.2476,-0.2536,-0.2537,-0.259,-0.2572,-0.2583,-0.2545,-0.2522,-0.2474,-0.2492,-0.2357,-0.2411,-0.2329,-0.2277,-0.2268,-0.2159,-0.216,-0.1884,-0.1761,-0.218,-0.2183,-0.2185,-0.2187,0,-0.1951,-0.2158,-0.2258,-0.2295,-0.246,-0.2499,-0.2548,-0.2556,-0.2553,-0.2512,-0.2472,-0.242,-0.2365,-0.2283,-0.2217,-0.2263,-0.2035,-0.2081,-0.1913,-0.1907,-0.1755,-0.174,-0.1932,-0.1932,-0.1933,-0.1933,-0.1934,0,-0.1919,-0.2006,-0.2216,-0.2235,-0.2292,-0.2431,-0.2404,-0.2449,-0.2443,-0.2385,-0.2409,-0.2322,-0.23,-0.2189,-0.2145,-0.1959,-0.1969,-0.1874,-0.1831,-0.1758,-0.1746,-0.2035,-0.2049,-0.1927,-0.1928,-0.1929,-0.193,0,-0.1816,-0.1966,-0.2051,-0.2198,-0.2257,-0.2259,-0.2343,-0.23,-0.2337,-0.2256,-0.2247,-0.2215,-0.2072,-0.2025,-0.1864,-0.1834,-0.1696,-0.1616,-0.1545,-0.1497,-0.1654,-0.1671,-0.1417,-0.1412,-0.1407,-0.1403,-0.14,0,-0.1795,-0.1837,-0.1936,-0.1982,-0.2066,-0.2111,-0.2127,-0.221,-0.2166,-0.2166,-0.2101,-0.1996,-0.1845,-0.1605,-0.151,-0.1363,-0.1482,-0.1201,-0.1273,-0.1604,-0.159,-0.1614,-0.1637,-0.1085,-0.1079,-0.1075,-0.1071,0,-0.1698,-0.1701,-0.1734,-0.1801,-0.1853,-0.1882,-0.1936,-0.1887,-0.1941,-0.1887,-0.179,-0.1695,-0.1496,-0.1265,-0.1113,-0.1043,-0.1235,-0.1102,-0.1394,-0.1247,-0.1279,-0.127,-0.1305,-0.1031,-0.1035,-0.1038,-0.104,-0.1042,-0.1569,-0.1514,-0.1539,-0.1599,-0.1667,-0.1676,-0.1601,-0.1625,-0.1528,-0.145,-0.1471,-0.13,-0.1249,-0.0915,-0.0809,-0.0763,-0.0867,-0.0876,-0.0894,-0.0916,-0.0923,-0.0946,-0.0638,-0.064,-0.0641,-0.0643,-0.0644,0,-0.1363,-0.1362,-0.1388,-0.1404,-0.1401,-0.1527,-0.1485,-0.1365,-0.1186,-0.1165,-0.1061,-0.089,-0.0694,-0.0665,-0.0503,-0.0463,-0.0517,-0.047,-0.0557,-0.0594,-0.0628,-0.0627,-0.0259,-0.0259,-0.0258,-0.0257,0,0,-0.1266,-0.1209,-0.1204,-0.1158,-0.1202,-0.113,-0.1068,-0.0934,-0.0858,-0.0698,-0.0629,-0.0653,-0.0636,-0.0464,-0.04,-0.0301,-0.0459,-0.0281,-0.0583,-0.0722,-0.0755,-0.0842,-0.0877,0,0,0,0,0]},{"header":{"parameterUnit":"m.s-1","parameterCategory":2,"la1":30.2991,"la2":30.254,"lo1":-89.0895,"lo2":-89.0444,"dy":0.0017,"dx":0.0017,"nx":28,"ny":28,"refTime":"2025-02-05T03:00:00:Z","depth":"2","parameterNumber":3,"parameterNumberName":"V-component_of_CURRENTS"},"data":[0,0,0,0,0,0,0,0,0,0,0,0,0,0,0,0,0,0,0,0,0,0,0,0,0,0,0,0,0,0,0,0,0,0,0,0,0,0,0,0,0,0,0,0,0,0,0,0,0,0,0,0,0,0,0,0,0,0,-0.0875,-0.0874,0,-0.0733,-0.0731,-0.073,-0.0651,-0.0651,-0.0651,-0.0651,-0.0359,-0.0351,-0.0344,0,0,0,0,0,0,0,0,0,0,0,0,0,-0.0941,-0.0941,-0.0876,-0.0874,-0.0872,-0.0733,-0.0731,-0.0729,-0.0651,-0.0651,-0.0651,-0.065,-0.0361,-0.0352,-0.0343,0,0,0,0,0,0,0,0,0,0,0,0,0,-0.0867,-0.0941,-0.0876,-0.0816,-0.081,-0.0734,-0.0731,-0.0729,-0.0651,-0.0651,-0.0651,-0.065,-0.0364,-0.0353,-0.0342,-0.0278,0,0,-0.0307,-0.0302,0,0,0,0,0,0,0,0,-0.0872,-0.0865,-0.0827,-0.082,-0.0813,-0.071,-0.0647,-0.057,-0.0651,-0.0711,-0.065,-0.065,-0.0462,-0.0443,-0.0419,-0.0264,-0.0251,-0.0306,-0.0299,-0.0294,-0.0291,0,0,0,0,0,0,0,-0.0877,-0.087,-0.0819,-0.0825,-0.0816,-0.0749,-0.074,-0.0632,-0.0587,-0.0706,-0.07,-0.0684,-0.0458,-0.043,-0.0411,-0.0247,-0.0306,-0.0296,-0.0289,-0.0285,0.0165,0.017,0,0,0,0,0,0,-0.0903,-0.0876,-0.0823,-0.0815,-0.0842,-0.0749,-0.0738,-0.0743,-0.0592,-0.0569,-0.0685,-0.0681,-0.045,-0.0424,-0.04,-0.0194,-0.0294,-0.0284,-0.0277,0.016,0.0166,0.0172,0,0,0,0,0,0,-0.0905,-0.0901,-0.0829,-0.084,-0.0827,-0.0749,-0.0754,-0.074,-0.07,-0.0577,-0.0552,-0.0658,-0.0449,-0.0416,-0.0294,-0.0187,-0.0279,-0.0268,0.0154,0.0162,0.0169,0.0141,0,0,0,0,0,0,-0.0908,-0.0903,-0.0915,-0.0843,-0.0827,-0.0781,-0.0754,-0.0738,-0.0692,-0.0686,-0.0546,-0.052,-0.0446,-0.0311,-0.0283,-0.0173,-0.0259,0.0148,0.0158,0.0167,0.0135,0.0146,0.0156,0,0,0,0,0,-0.0911,-0.0935,-0.0917,-0.091,-0.0848,-0.0781,-0.0766,-0.0709,-0.0691,-0.0672,-0.0577,-0.0523,-0.0226,-0.0301,-0.0267,-0.0152,0.0143,0.0155,0.0166,0.013,0.0144,0.0156,0,0,0,0,0,0,-0.0949,-0.0927,-0.0906,-0.0916,-0.0851,-0.0768,-0.0747,-0.0706,-0.0619,-0.06,-0.0497,-0.0463,-0.0298,-0.0224,-0.0308,0.0017,-0.0015,0.0004,-0.0052,-0.0039,-0.0028,-0.0069,-0.025,0,0,0,0,0,-0.097,-0.0991,-0.0928,-0.0926,-0.0901,-0.0822,-0.0788,-0.0738,-0.0653,-0.0616,-0.0515,-0.0374,-0.0223,-0.0143,-0.0012,0.0133,0.0125,0.0249,0.0259,0.0267,0.0264,0.0302,0.0312,0.021,0.021,0.021,0,0,-0.0974,-0.097,-0.0973,-0.0937,-0.0883,-0.0831,-0.08,-0.0738,-0.0646,-0.0592,-0.0446,-0.0345,-0.0178,-0.0004,0.0082,0.0067,0.0293,0.0281,0.0286,0.0279,0.0315,0.0323,0.0331,0.0218,0.0216,0.0215,0,0,-0.0984,-0.0993,-0.1001,-0.0963,-0.0894,-0.0834,-0.0817,-0.0718,-0.0626,-0.0475,-0.0398,-0.0269,-0.0031,0.0081,0.0181,0.0329,0.034,0.0419,0.0444,0.0481,0.0487,0.0492,0.0464,0.0467,0.043,0.043,0.043,0,-0.0989,-0.0997,-0.0981,-0.0967,-0.0922,-0.0838,-0.0788,-0.0679,-0.054,-0.0446,-0.0413,-0.0098,0.0021,0.022,0.0289,0.0351,0.0343,0.0365,0.0483,0.0488,0.0494,0.0464,0.0468,0.043,0.043,0.043,0.043,0,-0.0994,-0.0991,-0.0986,-0.0947,-0.0889,-0.0839,-0.0697,-0.0596,-0.0468,-0.0353,-0.0128,0.001,0.0184,0.028,0.0344,0.0482,0.045,0.047,0.0417,0.05,0.0467,0.047,0.043,0.043,0.043,0.043,0,0,-0.1034,-0.0999,-0.1,-0.0966,-0.0876,-0.082,-0.0657,-0.0484,-0.0387,-0.0189,-0.006,0.0223,0.0258,0.0371,0.0452,0.0506,0.0536,0.0509,0.0511,0.0421,0.0563,0.0525,0.0524,0.0561,0.0562,0.0564,0.0508,0,-0.1033,-0.1017,-0.0984,-0.091,-0.087,-0.0752,-0.062,-0.0448,-0.0282,-0.0146,0.006,0.0211,0.0314,0.037,0.0452,0.0514,0.0552,0.0546,0.0551,0.055,0.0457,0.0531,0.0527,0.0478,0.0511,0.0512,0.0512,0,-0.1046,-0.1034,-0.0984,-0.0883,-0.0853,-0.0788,-0.0595,-0.0464,-0.0243,-0.0113,0.0054,0.0169,0.0324,0.0364,0.0513,0.0499,0.0539,0.0573,0.0572,0.0548,0.0521,0.0418,0.0483,0.0518,0.0518,0.0517,0.0517,0,-0.1078,-0.1023,-0.0983,-0.0959,-0.0838,-0.0754,-0.0656,-0.0451,-0.0339,-0.0135,-0.0074,0.0132,0.0207,0.0322,0.0448,0.0473,0.0538,0.0574,0.057,0.0564,0.0571,0.0564,0.065,0.065,0.065,0.065,0.065,0,-0.1097,-0.1067,-0.1002,-0.0987,-0.0913,-0.0795,-0.0694,-0.0547,-0.0399,-0.0293,-0.0095,-0.0012,0.02,0.0286,0.0397,0.0487,0.0506,0.0574,0.0566,0.0563,0.0556,0.0613,0.061,0.0648,0.0648,0.0649,0.0649,0,-0.1129,-0.1101,-0.1067,-0.097,-0.0934,-0.0878,-0.0755,-0.0681,-0.0527,-0.041,-0.0353,-0.0137,0.0003,0.0161,0.0306,0.0398,0.049,0.0505,0.0456,0.0445,0.0494,0.0491,0.0505,0.0503,0.0502,0.0501,0.05,0,-0.1142,-0.1128,-0.1088,-0.1078,-0.1038,-0.096,-0.0899,-0.0745,-0.0676,-0.0472,-0.0426,-0.027,-0.0126,0.0045,0.0227,0.0368,0.042,0.042,0.0504,0.0498,0.0488,0.0487,0.0486,0.0483,0.0482,0.0482,0.0481,0,-0.1153,-0.1154,-0.1132,-0.1128,-0.1091,-0.1055,-0.0958,-0.0935,-0.0744,-0.0661,-0.0512,-0.0398,-0.0185,0.0005,0.0177,0.0278,0.0409,0.0408,0.043,0.0523,0.0476,0.0466,0.0466,0.0475,0.0475,0.0476,0.0476,0.0476,-0.1156,-0.1159,-0.1147,-0.1135,-0.1124,-0.1093,-0.1044,-0.0966,-0.0878,-0.0677,-0.0607,-0.0401,-0.0219,0.0065,0.0188,0.0331,0.0355,0.0421,0.0425,0.043,0.044,0.0394,0.0375,0.0375,0.0375,0.0375,0.0375,0,-0.112,-0.1122,-0.1135,-0.1116,-0.1115,-0.1107,-0.1034,-0.0963,-0.0863,-0.0709,-0.057,-0.0347,-0.0156,0.0045,0.026,0.036,0.0392,0.0383,0.0422,0.0427,0.0432,0.0445,0.038,0.038,0.038,0.038,0,0,-0.1081,-0.1087,-0.1101,-0.1091,-0.1089,-0.1044,-0.1003,-0.0903,-0.0781,-0.0614,-0.0465,-0.032,-0.0109,0.0037,0.0174,0.0292,0.0333,0.0302,0.0289,0.0323,0.0327,0.0444,0.0467,0,0,0,0,0]}],[{"header":{"parameterUnit":"m.s-1","parameterCategory":2,"la1":30.2991,"la2":30.254,"lo1":-89.0895,"lo2":-89.0444,"dy":0.0017,"dx":0.0017,"nx":28,"ny":28,"refTime":"2025-02-05T03:00:00:Z","depth":"4","parameterNumber":2,"parameterNumberName":"U-component_of_CURRENTS"},"data":[0,0,0,0,0,0,0,0,0,0,0,0,0,0,0,0,0,0,0,0,0,0,0,0,0,0,0,0,0,0,0,0,0,0,0,0,0,0,0,0,0,0,0,0,0,0,0,0,0,0,0,0,0,0,0,0,0,0,-0.0829,-0.0829,0,-0.0888,-0.0889,-0.089,-0.0934,-0.0935,-0.0935,-0.0935,-0.1006,-0.1008,-0.1009,0,0,0,0,0,0,0,0,0,0,0,0,0,-0.0776,-0.0776,-0.0828,-0.0829,-0.083,-0.0888,-0.0889,-0.089,-0.0934,-0.0935,-0.0935,-0.0936,-0.1005,-0.1007,-0.1009,0,0,0,0,0,0,0,0,0,0,0,0,0,-0.0814,-0.0777,-0.0828,-0.0858,-0.0861,-0.0888,-0.0889,-0.089,-0.0934,-0.0935,-0.0935,-0.0936,-0.1005,-0.1007,-0.101,-0.1015,0,0,-0.1017,-0.1018,0,0,0,0,0,0,0,0,-0.0812,-0.0816,-0.0853,-0.0856,-0.086,-0.0904,-0.0897,-0.0932,-0.0934,-0.0908,-0.0935,-0.0936,-0.0972,-0.0977,-0.0988,-0.1019,-0.1022,-0.1017,-0.1019,-0.102,-0.102,0,0,0,0,0,0,0,-0.0809,-0.0814,-0.0853,-0.0854,-0.0858,-0.0877,-0.0883,-0.0904,-0.0937,-0.091,-0.0913,-0.0918,-0.0974,-0.0986,-0.099,-0.1023,-0.1017,-0.1019,-0.1021,-0.1022,-0.106,-0.106,0,0,0,0,0,0,-0.0798,-0.0811,-0.0851,-0.0855,-0.0836,-0.0877,-0.0884,-0.089,-0.0937,-0.0944,-0.0918,-0.092,-0.0982,-0.0988,-0.0993,-0.105,-0.102,-0.1022,-0.1023,-0.1061,-0.106,-0.106,0,0,0,0,0,0,-0.0797,-0.0801,-0.0849,-0.0834,-0.0841,-0.0877,-0.0884,-0.0891,-0.0922,-0.0943,-0.095,-0.0944,-0.0982,-0.099,-0.1038,-0.1051,-0.1023,-0.1025,-0.1061,-0.1061,-0.106,-0.1134,0,0,0,0,0,0,-0.0795,-0.08,-0.08,-0.0833,-0.0841,-0.0877,-0.0884,-0.0892,-0.0923,-0.0927,-0.0967,-0.0973,-0.0983,-0.1035,-0.1041,-0.1054,-0.1027,-0.1062,-0.1061,-0.106,-0.1132,-0.1136,-0.1139,0,0,0,0,0,-0.0793,-0.0784,-0.0799,-0.0804,-0.084,-0.0877,-0.0884,-0.0911,-0.0924,-0.0941,-0.0976,-0.0973,-0.1032,-0.1038,-0.1045,-0.1059,-0.1062,-0.1061,-0.106,-0.113,-0.1135,-0.1139,0,0,0,0,0,0,-0.076,-0.0789,-0.0806,-0.0807,-0.0847,-0.0885,-0.0895,-0.0921,-0.0962,-0.0972,-0.0993,-0.1002,-0.1048,-0.1034,-0.1039,-0.1059,-0.1036,-0.1037,-0.1087,-0.1091,-0.1095,-0.107,-0.1029,0,0,0,0,0,-0.0752,-0.0758,-0.0798,-0.0804,-0.0821,-0.0865,-0.0883,-0.0912,-0.095,-0.0969,-0.0999,-0.1018,-0.1044,-0.1055,-0.1076,-0.1097,-0.1079,-0.1097,-0.1101,-0.1105,-0.1084,-0.1092,-0.1095,-0.1057,-0.1057,-0.1057,0,0,-0.0744,-0.0759,-0.0764,-0.0798,-0.0829,-0.0857,-0.0878,-0.0916,-0.0945,-0.0969,-0.1018,-0.1049,-0.1056,-0.1089,-0.1102,-0.1082,-0.1106,-0.1103,-0.1107,-0.1084,-0.1091,-0.1095,-0.1099,-0.1056,-0.1056,-0.1056,0,0,-0.0727,-0.0745,-0.0746,-0.0778,-0.0825,-0.0858,-0.0874,-0.0929,-0.096,-0.1019,-0.1037,-0.1075,-0.1114,-0.112,-0.1127,-0.1154,-0.1138,-0.115,-0.1145,-0.1154,-0.1157,-0.116,-0.1153,-0.1154,-0.1138,-0.1139,-0.1139,0,-0.0722,-0.0721,-0.0756,-0.0769,-0.0796,-0.086,-0.0884,-0.0923,-0.0991,-0.1014,-0.104,-0.1098,-0.1125,-0.1141,-0.1156,-0.1166,-0.1159,-0.1141,-0.1162,-0.1164,-0.1166,-0.1157,-0.1158,-0.1142,-0.1142,-0.1141,-0.1141,0,-0.071,-0.0714,-0.0721,-0.0761,-0.08,-0.0831,-0.0895,-0.094,-0.0995,-0.1033,-0.1086,-0.1126,-0.1148,-0.1166,-0.1182,-0.1193,-0.1182,-0.1185,-0.116,-0.1175,-0.1164,-0.1164,-0.1147,-0.1146,-0.1145,-0.1144,0,0,-0.0691,-0.0708,-0.0714,-0.073,-0.0799,-0.0838,-0.0889,-0.0951,-0.0981,-0.105,-0.1081,-0.114,-0.1159,-0.1162,-0.1178,-0.1186,-0.1222,-0.1191,-0.119,-0.1198,-0.1231,-0.1135,-0.1125,-0.1239,-0.1239,-0.1239,-0.1223,0,-0.0678,-0.0693,-0.0709,-0.0746,-0.0768,-0.0833,-0.0869,-0.0938,-0.1005,-0.1051,-0.1092,-0.1133,-0.1154,-0.1176,-0.119,-0.1224,-0.1222,-0.1224,-0.1199,-0.1198,-0.1124,-0.1122,-0.1239,-0.1222,-0.1222,-0.1222,-0.1222,0,-0.0662,-0.0678,-0.0704,-0.0738,-0.0754,-0.0792,-0.088,-0.0919,-0.0989,-0.1028,-0.1069,-0.1111,-0.1141,-0.1159,-0.1191,-0.1196,-0.1207,-0.1223,-0.1223,-0.1099,-0.11,-0.1198,-0.1221,-0.1221,-0.1222,-0.1222,-0.1222,0,-0.0647,-0.0672,-0.0695,-0.0714,-0.0768,-0.08,-0.0844,-0.0922,-0.0954,-0.1017,-0.1039,-0.1085,-0.1113,-0.1139,-0.1185,-0.1196,-0.1211,-0.1229,-0.114,-0.1133,-0.1197,-0.1193,-0.1227,-0.1227,-0.1227,-0.1227,-0.1227,0,-0.0619,-0.0633,-0.0693,-0.0706,-0.0742,-0.0796,-0.0844,-0.088,-0.0937,-0.0958,-0.1018,-0.1031,-0.1114,-0.1143,-0.1172,-0.1146,-0.1197,-0.1121,-0.1117,-0.1227,-0.1228,-0.1197,-0.1194,-0.1227,-0.1227,-0.1227,-0.1227,0,-0.0577,-0.0611,-0.0633,-0.0698,-0.0728,-0.0761,-0.0835,-0.0853,-0.0906,-0.0935,-0.0951,-0.101,-0.1033,-0.1085,-0.1134,-0.1113,-0.1113,-0.1086,-0.1185,-0.119,-0.1032,-0.1033,-0.0979,-0.0975,-0.0972,-0.097,-0.0967,0,-0.0547,-0.0557,-0.0627,-0.0648,-0.0675,-0.074,-0.0764,-0.0832,-0.0852,-0.091,-0.0902,-0.0948,-0.0979,-0.096,-0.1021,-0.103,-0.1025,-0.1011,-0.1026,-0.1002,-0.1005,-0.101,-0.1015,-0.0963,-0.0962,-0.0961,-0.096,0,-0.0496,-0.0528,-0.0554,-0.0597,-0.0635,-0.0654,-0.0705,-0.0717,-0.0779,-0.0836,-0.0843,-0.0861,-0.0868,-0.0907,-0.0908,-0.0923,-0.1019,-0.0979,-0.0986,-0.1,-0.0982,-0.0988,-0.0997,-0.0949,-0.0951,-0.0952,-0.0953,0,-0.0464,-0.0471,-0.0519,-0.0544,-0.057,-0.0557,-0.0598,-0.0629,-0.0663,-0.0743,-0.0751,-0.0792,-0.0864,-0.0848,-0.0858,-0.0852,-0.0846,-0.0834,-0.0848,-0.0861,-0.0829,-0.0789,-0.0676,0,0,0,0,0,-0.0435,-0.0449,-0.0463,-0.048,-0.0484,-0.0497,-0.0544,-0.0585,-0.0669,-0.0649,-0.0706,-0.0714,-0.0724,-0.0754,-0.0723,-0.0783,-0.0835,-0.0741,-0.0824,-0.089,-0.0902,-0.0875,0,0,0,0,0,0,-0.0434,-0.0454,-0.0454,-0.0416,-0.0398,-0.0395,-0.0413,-0.0462,-0.0476,-0.0571,-0.0586,-0.0658,-0.0682,-0.0728,-0.0704,-0.071,-0.0745,-0.0783,-0.078,-0.0883,-0.0894,-0.0904,-0.0881,0,0,0,0,0]},{"header":{"parameterUnit":"m.s-1","parameterCategory":2,"la1":30.2991,"la2":30.254,"lo1":-89.0895,"lo2":-89.0444,"dy":0.0017,"dx":0.0017,"nx":28,"ny":28,"refTime":"2025-02-05T03:00:00:Z","depth":"4","parameterNumber":3,"parameterNumberName":"V-component_of_CURRENTS"},"data":[0,0,0,0,0,0,0,0,0,0,0,0,0,0,0,0,0,0,0,0,0,0,0,0,0,0,0,0,0,0,0,0,0,0,0,0,0,0,0,0,0,0,0,0,0,0,0,0,0,0,0,0,0,0,0,0,0,0,-0.0715,-0.0715,0,-0.0716,-0.0716,-0.0716,-0.07,-0.07,-0.0699,-0.0699,-0.0736,-0.0737,-0.0738,0,0,0,0,0,0,0,0,0,0,0,0,0,-0.0662,-0.0663,-0.0715,-0.0715,-0.0715,-0.0716,-0.0716,-0.0716,-0.07,-0.07,-0.0699,-0.0699,-0.0735,-0.0737,-0.0739,0,0,0,0,0,0,0,0,0,0,0,0,0,-0.0675,-0.0663,-0.0715,-0.0708,-0.0708,-0.0716,-0.0716,-0.0716,-0.07,-0.07,-0.0699,-0.0699,-0.0735,-0.0737,-0.0739,-0.076,0,0,-0.0745,-0.0746,0,0,0,0,0,0,0,0,-0.0674,-0.0677,-0.0709,-0.0709,-0.0708,-0.0708,-0.071,-0.0733,-0.07,-0.0702,-0.0699,-0.0698,-0.0731,-0.0733,-0.0732,-0.0762,-0.0764,-0.0745,-0.0746,-0.0747,-0.0747,0,0,0,0,0,0,0,-0.0673,-0.0676,-0.0714,-0.0709,-0.0709,-0.0692,-0.0694,-0.0714,-0.0719,-0.0702,-0.0701,-0.0703,-0.0731,-0.0731,-0.0733,-0.0764,-0.0745,-0.0747,-0.0748,-0.0748,-0.0821,-0.0821,0,0,0,0,0,0,-0.0678,-0.0676,-0.0714,-0.0714,-0.0691,-0.0694,-0.0695,-0.0708,-0.0718,-0.0719,-0.0703,-0.0702,-0.0728,-0.0731,-0.0735,-0.0773,-0.0747,-0.0749,-0.075,-0.082,-0.0821,-0.0822,0,0,0,0,0,0,-0.0677,-0.0682,-0.0714,-0.0695,-0.0698,-0.0696,-0.0709,-0.0708,-0.0719,-0.0719,-0.072,-0.0716,-0.0727,-0.0732,-0.0765,-0.0774,-0.075,-0.0751,-0.0819,-0.082,-0.0821,-0.0843,0,0,0,0,0,0,-0.0676,-0.0682,-0.0699,-0.0696,-0.07,-0.0722,-0.071,-0.0709,-0.072,-0.0719,-0.0731,-0.0732,-0.0727,-0.0762,-0.0767,-0.0776,-0.0753,-0.0818,-0.0819,-0.0821,-0.0841,-0.0845,-0.0848,0,0,0,0,0,-0.0674,-0.0696,-0.07,-0.0705,-0.0721,-0.0723,-0.0723,-0.0718,-0.0722,-0.0726,-0.074,-0.0733,-0.0773,-0.0765,-0.077,-0.078,-0.0817,-0.0819,-0.0821,-0.084,-0.0844,-0.0848,0,0,0,0,0,0,-0.0682,-0.0696,-0.0701,-0.0727,-0.0728,-0.0721,-0.0728,-0.073,-0.0744,-0.0749,-0.0751,-0.0755,-0.0784,-0.0785,-0.0775,-0.0805,-0.0791,-0.0794,-0.0804,-0.0808,-0.0811,-0.0788,-0.0754,0,0,0,0,0,-0.0693,-0.0715,-0.0717,-0.074,-0.0741,-0.074,-0.0744,-0.0741,-0.075,-0.0755,-0.0769,-0.0781,-0.0794,-0.0804,-0.0816,-0.0841,-0.08,-0.0849,-0.0852,-0.0855,-0.084,-0.0795,-0.0791,-0.0827,-0.0827,-0.0827,0,0,-0.0701,-0.0715,-0.0727,-0.0744,-0.0744,-0.0745,-0.0741,-0.0749,-0.0757,-0.076,-0.0788,-0.0799,-0.0805,-0.0826,-0.0838,-0.0829,-0.0822,-0.0857,-0.0859,-0.0842,-0.0796,-0.0792,-0.0788,-0.0828,-0.0828,-0.0828,0,0,-0.0718,-0.0741,-0.0756,-0.0757,-0.0764,-0.0762,-0.0769,-0.0774,-0.0782,-0.0813,-0.0811,-0.0827,-0.0862,-0.0853,-0.0855,-0.0886,-0.0843,-0.0897,-0.0894,-0.085,-0.0846,-0.0842,-0.0776,-0.0766,-0.0896,-0.0896,-0.0896,0,-0.0725,-0.0747,-0.0759,-0.0766,-0.0767,-0.0772,-0.0774,-0.0784,-0.0804,-0.081,-0.0826,-0.0853,-0.0867,-0.0866,-0.0877,-0.0891,-0.0851,-0.0879,-0.0852,-0.0847,-0.0842,-0.0776,-0.0764,-0.0897,-0.0897,-0.0897,-0.0897,0,-0.0739,-0.0757,-0.0764,-0.0775,-0.0782,-0.0785,-0.0793,-0.0807,-0.0828,-0.0835,-0.0856,-0.0872,-0.0877,-0.0892,-0.0899,-0.0877,-0.0853,-0.0862,-0.0836,-0.0839,-0.077,-0.0757,-0.0899,-0.0899,-0.0898,-0.0898,0,0,-0.0744,-0.0768,-0.0772,-0.0773,-0.0784,-0.0787,-0.0804,-0.081,-0.0817,-0.0844,-0.0847,-0.0877,-0.0877,-0.0878,-0.0884,-0.0857,-0.0799,-0.0848,-0.0845,-0.0772,-0.0679,-0.0631,-0.0613,-0.0802,-0.0801,-0.0799,-0.0639,0,-0.0745,-0.0764,-0.0776,-0.0784,-0.0784,-0.0791,-0.0806,-0.0816,-0.0834,-0.0841,-0.0846,-0.086,-0.0874,-0.088,-0.0852,-0.0822,-0.0769,-0.084,-0.0696,-0.0691,-0.0639,-0.0598,-0.0794,-0.063,-0.0627,-0.0625,-0.0623,0,-0.0744,-0.0757,-0.0771,-0.0783,-0.0785,-0.0795,-0.0805,-0.0818,-0.0823,-0.0838,-0.0835,-0.0839,-0.0812,-0.0828,-0.0736,-0.078,-0.0721,-0.0689,-0.0682,-0.0618,-0.062,-0.0629,-0.06,-0.0602,-0.0603,-0.0605,-0.0606,0,-0.0732,-0.075,-0.0765,-0.0767,-0.0782,-0.0792,-0.0805,-0.0819,-0.0828,-0.0829,-0.0828,-0.08,-0.0787,-0.0719,-0.0656,-0.0691,-0.0535,-0.0574,-0.0459,-0.0455,-0.0536,-0.0543,-0.0473,-0.0473,-0.0474,-0.0474,-0.0474,0,-0.0717,-0.0725,-0.0763,-0.0764,-0.0779,-0.0794,-0.0808,-0.0817,-0.0824,-0.0823,-0.0823,-0.08,-0.0761,-0.0679,-0.0619,-0.0484,-0.0492,-0.0429,-0.0404,-0.055,-0.056,-0.0526,-0.0534,-0.0468,-0.0469,-0.0471,-0.0472,0,-0.0689,-0.0718,-0.0728,-0.0758,-0.0773,-0.0782,-0.0811,-0.0816,-0.0826,-0.0818,-0.0815,-0.0782,-0.0675,-0.0595,-0.0474,-0.0428,-0.0315,-0.0257,-0.0381,-0.037,-0.0271,-0.0282,-0.0118,-0.0114,-0.0112,-0.011,-0.0108,0,-0.0676,-0.0682,-0.0725,-0.0743,-0.0758,-0.0781,-0.08,-0.0818,-0.0819,-0.0798,-0.0783,-0.0692,-0.0652,-0.0421,-0.0359,-0.0191,-0.0186,-0.0123,-0.0231,-0.0238,-0.0231,-0.0247,-0.0262,-0.0103,-0.0103,-0.0102,-0.0101,0,-0.0638,-0.0665,-0.068,-0.0723,-0.0749,-0.0764,-0.0789,-0.0784,-0.0794,-0.0802,-0.0724,-0.0634,-0.0498,-0.0381,-0.0233,-0.0133,-0.0175,-0.0096,-0.0102,-0.0204,-0.022,-0.0218,-0.0236,-0.0092,-0.0093,-0.0094,-0.0095,0,-0.0617,-0.0625,-0.0665,-0.0692,-0.0731,-0.0743,-0.0753,-0.0741,-0.0735,-0.0717,-0.0682,-0.057,-0.0519,-0.0344,-0.0217,-0.0101,-0.0105,-0.0111,-0.0117,-0.0126,-0.0198,-0.0224,-0.0047,0,0,0,0,0,-0.0592,-0.0607,-0.0636,-0.0665,-0.0703,-0.0724,-0.0748,-0.0753,-0.0759,-0.0694,-0.0687,-0.0559,-0.0381,-0.0314,-0.0183,-0.0184,-0.0093,-0.0032,-0.0104,-0.0041,-0.0052,-0.0133,0,0,0,0,0,0,-0.0581,-0.0608,-0.0623,-0.0641,-0.066,-0.0688,-0.0704,-0.0705,-0.0664,-0.0662,-0.0556,-0.0535,-0.035,-0.044,-0.0179,-0.0149,-0.0181,0.0044,0.0046,-0.0035,-0.0045,-0.0053,-0.0141,0,0,0,0,0]}]]